Location: ??
(35.7808°N, 139.5530°E)
Time: 23:11:40
(UTC+00:00)

Daily predictions for brighter satellites

Satellite Brightness Start Highest point End
(mag) Time Altitude Azimuth Time Altitude Azimuth Time Altitude Azimuth
Cosmos 2369 Rocket 4.3 18:22:55 21° NE 18:22:55 21° NE 18:24:58 10° NE
CENTAUR R/B 4.3 18:48:25 19° N 18:48:25 19° N 18:50:33 10° NNE
H-2A R/B 4.2 19:16:30 32° ENE 19:17:16 36° E 19:20:46 10° SSE
Cosmos 1782 4.5 19:26:09 25° S 19:26:09 25° S 19:27:53 10° S
ATLAS 5 CENTAUR R/B 3.4 19:23:47 10° S 19:26:51 25° ESE 19:30:06 10° ENE
SJ 16-02 4.1 19:24:03 10° SE 19:27:05 19° E 19:30:08 10° NE
Cosmos 1862 3.9 19:25:02 10° S 19:28:53 54° E 19:32:44 10° NNE
Cosmos 1503 Rocket 4.2 19:27:59 10° S 19:33:12 73° ESE 19:38:31 10° NNE
Cosmos 2208 Rocket 4.3 19:34:35 51° SW 19:34:35 51° SW 19:39:06 10° S
Cosmos 1867 4.0 19:37:40 43° SW 19:37:40 43° SW 19:42:08 10° S
Cosmos 1486 Rocket 4.3 19:41:17 46° NNW 19:41:17 46° NNW 19:45:29 10° N
SKYMED 2 4.4 19:40:01 10° SSE 19:44:11 50° ENE 19:48:14 11° N
SL-19 R/B 4.3 19:40:15 10° SSE 19:45:52 83° ENE 19:51:11 11° NNW
Cosmos 921 Rocket 2.9 19:47:41 61° WNW 19:48:12 68° WSW 19:52:38 10° S
Cosmos 2263 4.4 19:53:45 30° WSW 19:56:04 46° WNW 20:01:35 10° N
SJ-12 3.8 19:52:09 10° N 19:56:16 65° WNW 20:00:21 10° SSW
CZ-4C R/B 4.5 19:59:27 10° SE 20:02:17 32° ENE 20:05:07 10° N
Cosmos 2279 Rocket 3.9 19:56:23 10° N 20:02:36 89° WSW 20:08:47 10° S
Uosat 12 SS-18 rocket 4.5 19:58:08 10° SSW 20:02:57 89° ESE 20:08:59 10° NNE
Cosmos 1151 Rocket 2.9 20:00:58 22° NNW 20:03:44 67° W 20:08:03 10° S
Cosmos 2369 Rocket 3.1 20:04:49 27° NW 20:04:49 27° NW 20:08:42 10° N
Genesis I 4.2 20:04:42 31° WSW 20:04:42 31° WSW 20:08:00 10° S
Envisat 3.0 20:00:46 10° N 20:05:45 58° WNW 20:10:43 10° SSW
Centaur D-1A AC-35 4.2 20:02:52 10° SW 20:06:15 20° S 20:09:04 10° ESE
Okean 3 Rocket 3.7 20:03:28 10° SSW 20:07:53 54° W 20:12:20 10° N
Cosmos 2098 Rocket 3.5 20:09:53 35° WNW 20:09:53 35° WNW 20:13:58 10° N
Cosmos 1656 Rocket 4.2 20:10:10 27° W 20:11:46 32° WNW 20:16:38 10° N
Cosmos 1766 Rocket 3.9 20:08:06 10° SSW 20:12:11 40° W 20:16:16 10° N
Cosmos 1174 3.0 20:10:10 10° SSW 20:13:11 79° ESE 20:16:10 10° NNE
FALCON 9 R/B 4.1 19:56:18 22° W 20:14:19 79° SSW 20:21:20 10° ESE
MOS 1-B Rocket 4.1 20:08:34 10° S 20:14:53 53° WSW 20:20:32 10° NNW
Cosmos 1340 Rocket 3.8 20:14:37 10° S 20:18:25 49° E 20:22:15 10° NNE
Meteor PRIRODA 4.4 20:16:57 10° NNE 20:20:29 54° E 20:24:03 10° S
Cosmos 1634 Rocket 4.4 20:15:23 10° NNW 20:21:03 37° W 20:26:39 10° SSW
Cosmos 1812 3.5 20:20:59 29° WNW 20:21:30 30° W 20:24:52 10° SSW
CZ-2C R/B 2.7 20:16:58 10° S 20:22:24 62° W 20:27:45 10° NNW
Cosmos 1328 Rocket 3.6 20:20:24 10° NNW 20:24:40 55° W 20:28:53 10° S
DELTA 2 R/B (1) 3.8 20:22:49 22° WNW 20:26:18 58° N 20:31:47 10° ENE
Meteor 2-15 4.4 20:20:31 10° N 20:26:36 88° W 20:32:39 10° S
COSMO-SKYMED 1 3.0 20:28:08 10° S 20:32:13 41° W 20:36:21 10° NNW
Meteor 2-19 Rocket 4.4 20:29:36 10° SSW 20:35:37 68° W 20:41:40 10° N
NOAA 12 4.5 20:30:32 10° NNE 20:35:47 69° ESE 20:40:59 10° S
CENTAUR R/B 4.4 20:36:09 10° NNW 20:37:08 10° NNW 20:38:08 10° NNW
SL-27 R/B 2.7 20:34:50 10° NNW 20:38:24 69° ENE 20:41:52 10° SSE
Cosmos 1939 Rocket 3.3 20:38:18 10° NNE 20:42:10 62° E 20:45:58 10° S
Cosmos 1408 Rocket 4.0 20:41:00 10° SSW 20:45:00 38° W 20:49:01 10° N
Lacrosse 5 4.4 20:42:14 10° S 20:46:22 25° ESE 20:50:30 10° ENE
SL-4 R/B 2.2 20:46:40 10° SW 20:50:04 60° SE 20:53:42 10° NE
Meteor 1-31 Rocket 4.1 20:47:20 10° NNW 20:50:09 19° WNW 20:52:57 10° WSW
ADEOS 3.9 20:46:48 10° N 20:51:44 44° WNW 20:56:38 10° SW
Cosmos 1743 Rocket 3.6 20:50:07 10° SSW 20:54:27 61° W 20:58:46 10° N
NOAA 11 4.5 20:53:11 10° N 20:58:21 45° WNW 21:03:32 10° SW
CZ-3 R/B 3.3 20:48:05 10° SW 20:58:32 31° S 21:02:51 10° ESE
Alouette 2 Rocket 3.5 20:56:13 10° N 20:59:46 70° E 21:03:34 10° SSE
Cosmos 2228 Rocket 3.7 20:55:31 10° N 20:59:59 61° E 21:04:28 10° SSE
ATLAS 3B R/B 2.7 20:58:25 10° SW 21:04:43 53° NW 21:11:19 10° NNE
CZ-4B R/B 3.0 21:01:56 10° SE 21:05:01 36° ENE 21:08:04 10° N
CZ-2D R/B 4.3 21:01:30 10° NNE 21:05:12 50° E 21:08:52 10° S
SJ 16-02 2.1 21:01:30 10° SW 21:05:22 31° WNW 21:09:17 10° N
Cosmos 1538 Rocket 4.4 21:02:53 10° NNW 21:08:06 68° ENE 21:13:14 10° SSE
Cosmos 1515 Rocket 4.3 21:04:15 10° NNW 21:08:09 32° W 21:11:59 10° SSW
EO 1 Delta rocket 4.3 21:03:10 10° N 21:09:10 82° E 21:14:04 10° S
CZ-2C R/B 3.3 21:04:57 10° N 21:09:37 43° WNW 21:14:29 10° SW
Cosmos 2026 Rocket 4.1 21:06:17 10° S 21:12:39 83° W 21:18:57 10° N
Meteor 1-27 Rocket 4.0 21:07:19 10° NNW 21:12:47 51° W 21:18:21 10° SSW
